Date,TemperatureHighF,TemperatureAvgF,TemperatureLowF,DewpointHighF,DewpointAvgF,DewpointLowF,HumidityHigh,HumidityAvg,HumidityLow,PressureMaxIn,PressureMinIn,WindSpeedMaxMPH,WindSpeedAvgMPH,GustSpeedMaxMPH,PrecipitationSumIn
2013-1-1,45.2,41.6,38.0,28.9,26.5,21.5,63,55,48,30.03,29.91,6,1,13,0.00
2013-1-2,38.6,33.4,26.4,26.7,17.4,11.2,68,52,35,30.25,30.00,8,1,16,0.00
2013-1-3,40.1,30.1,21.4,21.5,17.1,14.1,83,60,35,30.27,30.15,7,1,13,0.00
2013-1-4,43.5,35.6,27.2,21.8,19.9,18.7,72,54,39,30.22,30.09,14,3,24,0.00
2013-1-5,45.2,37.6,32.9,31.2,23.0,19.3,77,56,39,30.39,30.14,8,1,18,0.00
2013-1-6,52.2,45.3,29.5,34.2,28.5,25.3,92,54,36,30.21,30.02,9,2,17,0.00
2013-1-7,48.2,40.5,26.7,28.8,25.9,22.8,85,57,41,30.45,30.14,9,1,17,0.00
2013-1-8,54.5,38.7,25.1,34.9,29.2,22.2,91,72,40,30.44,30.37,10,1,19,0.00
2013-1-9,53.3,41.1,29.1,40.6,34.2,27.1,95,78,46,30.39,30.23,7,1,18,0.00
2013-1-10,56.2,45.7,34.4,31.7,28.4,25.7,74,52,32,30.60,30.37,8,1,16,0.00
2013-1-11,44.5,39.8,32.7,42.7,35.3,29.1,97,84,71,30.52,30.10,4,0,14,0.08
2013-1-12,56.5,46.0,41.8,46.8,43.1,39.9,100,91,68,30.18,30.10,5,0,8,0.00
2013-1-13,50.8,45.4,39.9,50.5,44.7,38.6,100,99,94,30.16,29.98,7,0,11,0.02
2013-1-14,56.6,50.7,41.1,55.6,45.0,34.2,100,83,54,30.31,29.95,6,1,17,0.17
2013-1-15,41.1,39.0,35.9,39.5,37.5,34.3,97,94,90,30.35,30.17,5,0,9,0.60
2013-1-16,41.1,38.1,35.0,40.0,37.1,34.2,100,96,94,30.17,29.84,9,1,16,0.34
2013-1-17,44.8,41.2,38.2,40.7,33.5,29.1,97,75,55,30.14,29.98,5,0,12,0.01
2013-1-18,38.5,34.1,25.8,30.0,17.1,5.6,75,52,27,30.51,30.03,10,2,22,0.00
2013-1-19,55.1,41.1,31.9,27.0,23.8,15.7,68,52,30,30.44,29.97,13,6,22,0.00
2013-1-20,59.8,47.5,36.5,31.0,22.3,10.3,56,38,20,30.10,29.81,14,4,28,0.00
2013-1-21,42.5,34.9,30.0,32.1,18.7,10.3,67,52,38,30.13,29.81,10,2,24,0.00
2013-1-22,30.1,21.6,16.5,10.8,-2.8,-8.3,48,34,25,30.31,29.92,14,5,31,0.00
2013-1-23,26.0,20.1,12.9,5.7,-1.3,-6.5,55,39,27,30.37,30.17,13,2,21,0.00
2013-1-24,27.5,20.9,15.9,14.8,6.3,-3.1,86,56,27,30.52,30.12,10,2,21,0.02
2013-1-25,23.8,18.8,12.3,17.1,7.9,-0.9,87,64,35,30.52,30.09,8,0,13,0.00
2013-1-26,34.9,25.8,19.1,19.5,17.1,15.1,85,71,47,30.44,30.09,8,1,19,0.04
2013-1-27,39.5,26.1,16.4,22.9,17.5,13.2,89,72,40,30.61,30.44,7,0,13,0.00
2013-1-28,39.9,34.8,25.7,37.0,31.1,22.0,95,87,68,30.52,30.05,8,2,14,0.13
2013-1-29,65.3,47.3,31.0,49.4,41.3,30.0,100,82,56,30.14,30.00,8,2,17,0.00
2013-1-30,69.6,57.9,46.2,59.8,53.0,43.6,95,84,70,30.00,29.25,16,4,30,0.49
2013-1-31,60.4,44.1,27.3,59.3,25.4,8.8,96,50,27,29.93,29.15,19,8,38,0.59
2013-2-1,32.4,26.9,20.5,25.6,10.1,1.0,89,51,31,30.39,29.83,14,4,34,0.00
2013-2-2,31.2,24.7,16.7,25.4,10.5,2.7,88,57,33,30.40,30.03,11,2,19,0.00
2013-2-3,36.2,29.0,21.1,26.8,23.6,17.0,92,81,55,30.03,29.84,10,1,21,0.01
2013-2-4,36.0,30.5,22.5,23.8,13.9,8.4,70,50,39,30.12,29.91,10,2,20,0.00
2013-2-5,37.8,33.5,29.0,29.5,26.7,23.8,87,76,59,29.95,29.86,3,0,7,0.00
2013-2-6,44.5,36.0,27.0,33.0,25.5,20.3,92,68,43,30.37,29.94,12,2,21,0.00
2013-2-7,38.6,32.2,23.6,28.7,23.1,19.2,88,70,51,30.47,30.22,6,1,11,0.00
2013-2-8,41.5,37.5,33.7,39.8,33.1,21.3,96,85,56,30.22,29.72,17,2,36,0.26
2013-2-9,40.8,33.2,27.8,21.5,15.9,13.7,58,49,36,30.40,29.89,16,6,32,0.00
2013-2-10,41.9,31.9,18.9,31.3,16.0,1.8,88,56,22,30.51,30.27,10,2,17,0.00
2013-2-11,56.0,46.2,37.5,50.2,43.1,31.3,100,90,68,30.27,29.69,17,3,20,0.44
2013-2-12,56.9,47.4,36.6,40.5,28.3,23.6,73,49,30,30.00,29.80,13,2,26,0.00
2013-2-13,45.2,36.0,28.8,34.8,29.4,25.7,95,78,54,29.98,29.67,4,0,8,0.14
2013-2-14,49.6,38.1,30.7,35.2,30.3,17.2,97,77,28,30.03,29.77,6,1,12,0.10
2013-2-15,56.7,44.8,36.2,37.9,34.0,30.6,91,68,42,30.04,29.90,10,2,19,0.07
2013-2-16,37.9,35.9,33.1,35.2,29.9,15.6,96,80,48,30.03,29.82,6,1,14,0.07
2013-2-17,33.4,29.0,24.8,16.9,11.0,4.6,62,47,34,30.19,29.81,15,5,29,0.00
2013-2-18,42.2,30.2,20.8,28.5,9.7,3.9,75,44,22,30.39,30.18,11,2,22,0.00
2013-2-19,45.8,41.1,36.3,41.1,31.2,19.9,87,69,45,30.18,29.72,12,4,21,0.09
2013-2-20,39.6,33.3,25.7,20.5,13.8,7.1,53,44,37,30.16,29.84,15,5,28,0.00
2013-2-21,39.3,30.7,24.1,16.1,12.6,9.2,58,47,36,30.33,30.12,16,3,24,0.00
2013-2-22,33.7,31.6,29.0,30.8,22.3,15.2,92,69,55,30.41,30.23,5,0,10,0.02
2013-2-23,45.2,39.8,32.9,44.7,38.9,30.8,100,97,92,30.23,29.81,4,0,10,0.11
2013-2-24,51.4,42.6,32.9,42.5,30.9,19.6,97,67,34,30.11,29.79,13,4,31,0.00
2013-2-25,47.9,36.1,27.0,26.8,22.4,18.5,84,59,38,30.24,30.10,7,1,14,0.00
2013-2-26,46.0,36.4,26.4,44.9,32.2,23.5,96,85,67,30.24,29.62,11,3,20,0.63
2013-2-27,56.3,47.8,41.5,44.0,38.6,31.6,100,74,46,29.70,29.50,11,2,22,0.03
2013-2-28,48.6,43.5,40.3,37.9,29.8,21.5,88,60,35,29.73,29.63,11,3,21,0.01
2013-3-1,46.0,41.9,36.8,31.2,27.6,23.0,70,57,47,29.87,29.71,10,3,21,0.00
2013-3-2,39.2,35.1,31.2,23.8,21.4,18.5,69,57,48,29.88,29.80,10,2,19,0.00
2013-3-3,38.6,34.1,29.5,20.1,18.8,17.1,66,54,44,29.90,29.79,11,4,21,0.00
2013-3-4,43.5,34.8,28.4,19.0,16.1,13.6,61,47,34,30.03,29.90,14,4,26,0.00
2013-3-5,48.8,36.3,23.2,30.2,21.2,14.0,82,56,26,30.09,29.85,7,1,12,0.00
2013-3-6,41.6,37.6,34.3,36.5,33.8,26.8,95,87,61,29.97,29.62,14,6,29,0.80
2013-3-7,50.2,43.0,35.9,28.9,25.3,21.6,69,50,36,30.14,29.97,12,4,24,0.00
2013-3-8,48.6,42.4,34.7,26.8,24.3,20.2,67,49,40,30.26,30.11,14,5,30,0.00
2013-3-9,63.7,46.7,34.4,25.9,22.0,16.9,66,41,17,30.34,30.24,10,1,17,0.00
2013-3-10,59.0,44.8,28.2,38.8,24.1,5.7,87,52,12,30.35,30.24,11,2,18,0.00
2013-3-11,57.3,49.5,42.8,48.0,43.3,38.7,92,80,69,30.27,29.96,12,4,22,0.00
2013-3-12,60.5,52.6,42.8,55.8,44.9,29.4,97,77,51,29.99,29.71,16,6,31,0.56
2013-3-13,50.7,41.0,30.0,34.4,24.9,16.0,91,56,26,30.05,29.89,11,3,27,0.00
2013-3-14,45.5,37.8,31.9,19.2,15.2,10.6,55,40,26,30.11,30.00,15,5,30,0.00
2013-3-15,56.2,42.4,27.2,31.1,21.0,14.4,72,45,26,30.09,29.78,14,3,26,0.00
2013-3-16,54.5,44.2,37.6,38.7,33.2,29.5,79,66,50,29.94,29.66,9,1,16,0.00
2013-3-17,41.3,37.9,33.5,32.0,28.4,21.3,88,69,50,30.29,29.93,6,1,16,0.00
2013-3-18,39.6,37.5,35.9,37.3,27.7,17.2,97,70,45,30.34,29.88,6,1,16,0.25
2013-3-19,59.2,45.5,37.8,42.5,31.8,7.4,100,68,17,29.92,29.71,13,2,27,0.01
2013-3-20,51.6,43.5,31.9,28.9,16.1,10.4,57,35,19,30.00,29.78,13,3,28,0.00
2013-3-21,44.5,35.6,29.3,25.4,13.3,4.9,68,41,27,29.90,29.74,12,4,22,0.00
2013-3-22,46.7,36.3,28.5,18.7,14.8,8.3,54,42,28,30.01,29.88,15,4,26,0.00
2013-3-23,53.1,39.6,26.6,23.2,20.4,17.5,73,49,27,30.03,29.91,12,2,24,0.00
2013-3-24,42.1,36.6,27.9,32.5,23.5,19.6,87,61,42,30.01,29.68,9,1,16,0.00
2013-3-25,35.9,34.4,32.5,34.9,32.5,30.6,96,93,83,29.70,29.52,4,0,11,0.56
2013-3-26,51.6,41.4,31.2,36.5,29.9,21.2,97,68,32,29.97,29.70,9,2,20,0.13
2013-3-27,49.9,44.2,38.8,32.0,27.1,22.6,66,51,35,30.10,29.97,14,4,29,0.00
2013-3-28,50.2,43.6,35.8,31.9,27.7,22.7,71,54,35,30.21,30.08,12,3,19,0.00
2013-3-29,56.5,47.4,40.1,30.8,26.7,22.8,62,46,28,30.25,30.14,11,2,17,0.00
2013-3-30,57.8,46.8,35.2,34.0,29.1,23.4,80,53,29,30.23,30.11,8,1,13,0.00
2013-3-31,54.5,47.6,38.2,50.3,41.5,29.8,96,80,59,30.14,29.74,12,2,22,0.04
2013-4-1,65.3,51.1,39.5,47.4,35.6,16.8,97,61,33,29.99,29.71,14,4,31,0.00
2013-4-2,49.1,40.7,29.3,20.9,14.9,10.6,68,37,24,30.17,29.99,13,3,25,0.00
2013-4-3,50.8,40.7,28.4,18.2,13.6,7.4,61,35,20,30.39,30.17,13,3,27,0.00
2013-4-4,48.3,38.1,24.4,34.8,19.0,9.1,84,48,21,30.44,30.11,10,2,17,0.02
2013-4-5,66.1,50.7,38.2,39.6,30.1,18.6,96,56,19,30.11,29.80,9,2,20,0.17
2013-4-6,52.2,46.2,37.0,34.5,20.2,13.7,64,37,23,30.34,30.04,9,2,18,0.00
2013-4-7,62.1,51.0,40.9,44.6,39.3,32.3,82,65,47,30.31,30.00,13,4,25,0.00
2013-4-8,77.4,65.8,52.0,52.7,45.5,40.9,74,49,30,30.08,29.97,9,2,20,0.00
2013-4-9,86.5,74.2,63.5,53.2,50.8,47.8,61,45,27,30.06,29.92,11,3,20,0.00
2013-4-10,91.2,77.9,66.0,55.7,52.7,50.5,61,43,26,29.96,29.77,10,3,22,0.00
2013-4-11,80.3,66.5,53.8,60.7,56.1,50.6,90,71,48,29.90,29.76,9,2,18,0.00
2013-4-12,59.2,53.9,51.6,58.6,52.4,49.7,100,95,88,29.86,29.61,10,1,21,0.50
2013-4-13,66.4,55.9,41.3,50.2,42.2,33.9,97,64,33,29.95,29.76,10,3,19,0.01
2013-4-14,68.1,55.8,41.6,46.4,38.9,28.3,95,59,24,30.14,29.95,10,2,20,0.00
2013-4-15,60.9,56.9,53.1,49.8,46.9,42.5,88,70,57,30.31,30.13,7,1,13,0.02
2013-4-16,71.1,61.1,52.0,56.0,51.9,47.0,87,72,57,30.33,30.12,14,3,26,0.00
2013-4-17,74.7,65.0,57.8,60.2,55.9,52.3,93,73,57,30.25,30.11,5,1,11,0.00
2013-4-18,74.6,63.8,58.0,61.2,56.1,50.9,94,77,55,30.25,30.03,13,4,26,0.04
2013-4-19,74.9,65.4,53.1,64.4,59.7,50.8,93,83,65,30.03,29.59,13,5,25,0.76
2013-4-20,61.0,53.1,47.6,51.2,32.8,24.0,95,51,26,30.33,29.78,12,3,24,0.07
2013-4-21,53.9,47.5,40.8,34.4,24.3,19.1,63,41,28,30.61,30.33,7,1,16,0.00
2013-4-22,55.4,47.1,34.0,37.7,34.4,31.1,90,63,46,30.60,30.42,6,1,14,0.00
2013-4-23,62.4,51.6,44.2,45.0,40.8,37.6,89,68,43,30.43,30.14,6,1,13,0.00
2013-4-24,68.6,57.9,43.1,55.9,49.9,41.0,97,76,59,30.14,29.80,14,3,22,0.00
2013-4-25,65.5,55.3,46.7,54.5,34.8,25.0,77,48,22,30.30,29.94,12,3,25,0.01
2013-4-26,68.3,55.2,40.1,40.8,34.9,28.8,89,51,24,30.45,30.30,8,1,16,0.00
2013-4-27,68.6,55.7,38.5,47.8,35.8,23.0,95,54,19,30.44,30.30,7,1,13,0.00
2013-4-28,67.4,58.0,42.2,47.5,38.7,29.2,92,52,26,30.30,30.17,12,3,20,0.00
2013-4-29,58.7,56.5,53.9,57.6,53.7,40.2,97,91,51,30.18,30.07,9,2,17,0.44
2013-4-30,60.5,56.6,50.7,57.3,53.5,46.4,100,91,67,30.30,30.10,5,1,12,0.15
2013-5-1,68.8,56.9,43.3,49.4,42.9,34.2,96,64,29,30.44,30.29,7,1,16,0.00
2013-5-2,68.4,56.4,44.2,50.1,45.6,42.0,94,70,40,30.46,30.32,7,0,14,0.00
2013-5-3,64.5,54.6,44.6,49.1,42.9,39.8,96,67,42,30.40,30.32,8,1,16,0.00
2013-5-4,67.6,56.6,46.0,46.8,43.2,39.3,92,63,40,30.35,30.20,9,1,13,0.00
2013-5-5,61.8,53.0,45.4,47.0,41.8,37.7,80,66,50,30.27,30.17,8,1,13,0.00
2013-5-6,62.7,55.7,47.9,57.4,51.4,43.4,93,86,78,30.20,30.08,5,1,13,0.02
2013-5-7,63.2,59.8,57.2,62.1,58.6,55.8,100,97,91,30.10,29.95,6,1,16,0.63
2013-5-8,71.1,61.2,57.0,58.4,55.7,51.2,95,83,57,30.01,29.94,7,1,16,0.01
2013-5-9,75.6,63.0,51.9,58.5,55.1,50.8,100,78,48,30.00,29.92,9,1,16,0.00
2013-5-10,81.8,69.1,53.1,62.7,57.3,52.0,100,70,42,30.01,29.87,9,2,20,0.25
2013-5-11,78.3,67.7,63.4,65.2,62.6,58.3,97,86,55,29.94,29.71,9,2,24,0.23
2013-5-12,65.3,60.1,50.7,62.8,41.0,25.6,97,55,24,30.03,29.73,12,2,26,0.02
2013-5-13,60.5,50.7,38.5,35.4,28.8,20.4,87,47,22,30.17,30.03,11,2,21,0.00
2013-5-14,64.2,51.1,34.7,48.0,32.6,24.4,89,54,26,30.22,30.06,9,1,20,0.00
2013-5-15,77.0,64.5,56.0,62.6,52.2,45.1,85,65,50,30.08,29.69,11,2,20,0.00
2013-5-16,83.0,72.3,70.4,62.1,60.9,55.9,75,68,44,29.91,29.70,12,0,15,0.00
2013-5-17,79.8,69.9,57.0,56.9,50.8,38.9,91,58,25,30.16,29.91,6,0,12,0.00
2013-5-18,67.6,63.5,59.6,57.9,53.7,46.6,93,71,49,30.26,30.16,8,1,17,0.00
2013-5-19,72.0,65.1,59.9,64.7,62.1,57.9,100,91,76,30.23,30.10,4,0,8,0.03
2013-5-20,80.3,71.0,64.7,68.8,65.6,62.7,96,84,63,30.13,29.98,8,1,12,0.00
2013-5-21,82.6,73.2,67.1,69.4,67.0,65.0,95,81,61,30.01,29.88,8,2,16,0.00
2013-5-22,84.5,76.0,68.4,71.7,69.1,62.5,96,80,63,29.93,29.84,9,2,16,0.08
2013-5-23,79.6,72.3,65.0,69.6,66.8,61.0,96,83,64,29.91,29.76,11,2,18,1.10
2013-5-24,65.3,58.0,51.0,63.8,50.2,33.6,100,77,51,30.14,29.73,9,3,21,0.04
2013-5-25,66.6,56.0,45.4,38.8,34.6,31.2,65,46,28,30.15,30.06,16,4,29,0.00
2013-5-26,72.8,59.8,48.9,44.1,36.9,33.4,76,45,25,30.21,30.11,12,2,21,0.00
2013-5-27,72.5,61.3,44.6,53.5,44.1,31.3,91,57,27,30.29,30.18,7,0,9,0.00
2013-5-28,78.6,66.8,57.8,66.7,60.5,53.1,95,81,62,30.21,30.07,6,0,11,0.06
2013-5-29,86.1,77.1,67.6,69.8,65.8,63.8,89,70,48,30.12,30.06,12,2,12,0.00
2013-5-30,89.9,80.1,71.3,70.8,66.3,62.8,87,64,44,30.18,30.10,9,2,18,0.00
2013-5-31,90.3,78.1,65.5,69.6,65.9,60.7,95,69,38,30.16,30.02,11,2,17,0.00
2013-6-1,90.1,79.5,69.6,70.7,66.4,62.6,86,66,45,30.05,29.92,7,2,16,0.00
2013-6-2,84.9,77.9,69.3,70.5,66.8,63.2,96,70,56,29.93,29.83,13,4,24,0.23
2013-6-3,81.2,71.3,65.3,70.1,67.7,61.9,97,89,62,29.93,29.81,5,0,12,0.36
2013-6-4,78.5,67.5,56.0,61.9,48.9,40.5,88,55,27,30.13,29.93,6,0,11,0.00
2013-6-5,78.5,67.3,52.5,60.1,53.0,48.7,97,64,37,30.19,30.07,8,1,12,0.00
2013-6-6,74.4,68.7,62.0,65.5,59.3,52.9,94,73,58,30.10,29.88,7,1,13,0.21
2013-6-7,71.5,69.0,65.8,71.0,68.3,65.2,100,99,94,29.88,29.55,5,1,13,2.81
2013-6-8,81.4,70.4,64.3,66.3,63.7,59.9,100,82,50,30.09,29.67,6,0,12,0.01
2013-6-9,81.1,72.2,62.9,69.1,64.5,57.3,97,78,56,30.21,30.09,4,0,9,0.00
2013-6-10,79.0,65.6,0.0,73.2,70.2,65.9,100,80,78,30.11,29.79,10,2,18,0.26
2013-6-11,83.8,74.2,0.0,69.1,65.3,60.6,100,69,52,29.84,29.76,16,3,17,0.00
2013-6-12,88.2,78.4,66.6,70.3,66.0,62.6,88,67,49,29.86,29.78,8,1,14,0.00
2013-6-13,86.3,74.9,69.9,72.5,67.3,57.2,94,78,52,29.82,29.44,16,3,36,0.42
2013-6-14,80.3,69.3,59.3,59.2,54.8,49.8,93,63,36,29.96,29.56,8,1,25,0.09
2013-6-15,84.1,71.1,57.8,60.2,56.0,49.7,92,63,32,30.07,29.96,7,1,16,0.00
2013-6-16,83.0,72.7,61.2,69.7,63.3,57.9,92,74,52,30.03,29.87,8,1,17,0.01
2013-6-17,86.5,77.2,66.9,71.8,67.0,62.1,88,72,49,29.96,29.87,8,1,14,0.00
2013-6-18,79.9,71.4,62.4,71.2,67.2,61.5,97,87,69,29.92,29.79,10,0,18,0.58
2013-6-19,79.6,69.4,61.5,66.0,60.0,50.5,100,76,39,30.16,29.87,4,0,10,0.00
2013-6-20,79.0,70.3,60.2,64.0,58.1,51.9,100,69,41,30.28,30.16,8,1,16,0.00
2013-6-21,80.7,69.5,55.6,63.1,56.1,41.9,96,66,26,30.32,30.24,6,1,13,0.00
2013-6-22,84.5,73.8,62.0,68.0,63.7,60.8,100,73,51,30.26,30.15,7,1,18,0.02
2013-7-3,85.3,79.5,75.7,76.2,73.9,72.7,91,83,69,30.26,30.18,6,2,10,0.00
2013-7-4,87.5,80.0,73.6,76.8,73.8,72.1,96,82,65,30.27,30.18,8,4,16,0.00
2013-7-5,89.3,81.8,74.5,74.9,73.0,71.2,92,76,57,30.24,30.13,10,4,18,0.00
2013-7-6,93.1,82.7,75.6,76.2,73.0,70.9,90,74,51,30.19,30.07,8,3,16,0.00
2013-7-7,91.8,80.8,71.7,75.5,71.8,68.0,89,75,53,30.12,29.99,10,3,22,0.00
2013-7-8,85.9,76.8,70.1,74.4,69.7,66.6,95,80,55,30.10,30.03,8,2,15,0.05
2013-7-9,85.3,78.6,72.7,75.8,72.4,69.2,91,82,66,30.11,30.01,5,1,10,0.00
2013-7-10,88.4,80.1,73.8,77.7,74.2,70.4,92,83,66,30.02,29.86,11,3,21,0.01
2013-7-11,86.6,76.9,73.0,73.9,71.3,68.1,96,84,56,29.93,29.84,5,1,11,0.02
2013-7-12,74.2,70.2,67.0,71.2,68.5,65.7,97,94,81,30.01,29.88,4,1,10,1.03
2013-7-13,86.7,76.2,67.9,75.5,71.2,67.2,99,86,65,30.29,30.01,7,2,13,0.02
2013-7-14,88.6,80.2,73.0,78.6,73.7,70.7,99,82,63,30.35,30.28,6,1,11,0.00
2013-7-15,96.1,82.1,70.8,78.7,73.4,69.6,98,77,47,30.31,30.18,5,1,10,0.00
2013-7-16,96.8,85.1,75.5,75.9,72.4,67.3,94,69,41,30.23,30.16,4,1,12,0.00
2013-7-17,96.8,83.2,71.3,76.5,72.7,69.6,97,73,45,30.21,30.09,5,1,9,0.00
2013-7-18,96.7,84.5,74.3,82.6,76.3,72.4,95,78,54,30.12,30.00,7,1,11,0.02
2013-7-19,95.9,85.4,77.8,80.2,76.0,70.6,91,75,53,30.01,29.87,8,2,15,0.00
2013-7-20,93.7,83.5,75.0,77.3,74.2,71.2,95,75,50,29.90,29.78,9,2,17,0.13
2013-7-21,90.8,77.9,71.4,77.2,72.4,68.1,97,85,53,29.95,29.88,8,1,15,1.08
2013-7-22,88.4,79.6,72.5,77.7,74.2,71.8,98,84,64,29.93,29.76,7,2,15,0.00
2013-7-23,88.5,78.3,71.9,75.6,71.4,67.5,98,81,56,29.78,29.64,8,2,16,0.46
2013-7-24,86.5,76.7,68.8,72.1,67.4,58.3,94,74,56,29.92,29.68,3,1,9,0.00
2013-7-25,79.3,70.3,63.1,65.3,59.8,53.5,87,70,57,30.03,29.92,4,1,12,0.00
2013-7-26,83.5,73.2,64.6,66.7,63.1,60.0,91,72,48,30.09,30.02,6,1,11,0.00
2013-7-27,83.6,75.2,67.9,72.6,67.9,63.5,93,79,61,30.07,29.94,9,3,17,0.00
2013-7-28,86.3,76.7,71.8,74.9,69.8,65.5,93,80,61,29.99,29.89,6,2,12,0.00
2013-7-29,84.5,73.0,62.8,69.9,58.2,50.1,92,63,32,30.16,29.97,7,1,14,0.00
2013-7-30,83.0,71.2,58.0,63.0,58.8,53.9,95,69,39,30.23,30.15,6,1,11,0.00
2013-7-31,83.1,72.5,62.2,69.5,65.3,61.0,97,80,57,30.16,30.03,7,2,15,0.00
2013-8-1,83.0,73.3,67.8,74.6,70.0,66.2,98,90,73,30.03,29.81,6,2,12,0.31
2013-8-2,85.8,75.8,65.8,70.4,66.6,62.4,97,76,47,29.96,29.85,7,2,13,0.00
2013-8-3,77.4,70.0,66.1,71.9,66.4,64.1,97,89,68,29.98,29.91,5,1,10,0.02
2013-8-4,83.8,71.4,59.7,64.6,58.7,50.5,97,68,40,30.02,29.89,8,2,15,0.00
2013-8-5,79.9,68.2,55.9,62.2,57.8,54.3,95,72,47,30.10,30.01,6,1,11,0.00
2013-8-6,73.5,69.0,63.2,67.4,64.7,60.0,94,86,78,30.09,30.01,8,2,14,0.00
2013-8-7,82.0,74.7,69.6,73.3,70.1,66.9,94,86,73,30.08,30.00,8,3,15,0.01
2013-8-8,87.2,78.1,72.8,76.3,73.0,69.9,96,85,64,30.05,29.98,11,3,19,0.37
2013-8-9,90.3,80.5,76.3,78.5,74.9,71.3,94,84,59,29.98,29.84,9,3,15,0.13
2013-8-10,83.8,75.9,67.8,72.5,68.1,61.6,96,78,50,30.08,29.93,5,1,9,0.00
2013-8-11,83.6,74.6,66.5,71.5,68.0,65.4,97,81,60,30.12,30.01,7,1,11,0.00
2013-8-12,86.5,76.6,68.0,74.5,70.6,67.1,98,83,61,30.03,29.91,4,1,7,0.00
2013-8-13,85.9,77.4,71.1,73.8,71.4,68.0,96,83,58,29.91,29.73,7,2,15,0.33
2013-8-14,77.3,67.8,58.6,69.9,54.0,47.3,96,63,44,30.09,29.79,9,2,19,0.00
2013-8-15,77.6,64.6,52.5,57.4,53.0,46.5,96,70,37,30.19,30.09,6,1,11,0.00
2013-8-16,78.5,66.1,52.8,60.6,55.7,49.7,98,73,38,30.20,30.14,5,1,11,0.00
2013-8-17,79.7,68.8,56.4,64.3,59.1,55.3,97,74,47,30.27,30.20,5,1,11,0.00
2013-8-18,73.5,68.5,65.0,66.9,63.1,59.0,97,83,63,30.23,30.16,3,0,9,0.04
2013-8-19,75.6,68.3,60.9,67.5,63.8,60.0,97,86,72,30.18,30.07,6,2,10,0.00
2013-8-20,85.8,73.4,60.5,73.1,67.2,59.9,98,83,60,30.16,30.09,7,1,13,0.00
2013-8-21,88.1,77.2,68.0,75.7,71.4,67.1,98,83,61,30.20,30.06,8,2,13,0.01
2013-8-22,90.3,78.8,70.4,73.7,69.5,65.2,98,75,45,30.09,29.92,8,2,14,0.02
2013-8-23,79.7,70.9,59.7,69.5,64.5,58.0,95,81,63,30.11,29.93,3,0,8,0.00
2013-8-24,84.0,70.2,58.0,65.6,59.7,52.4,97,72,37,30.34,30.11,5,1,10,0.00
2013-8-25,81.0,68.6,56.1,64.9,56.6,46.8,98,70,34,30.42,30.27,6,1,12,0.00
2013-8-26,88.6,74.7,62.0,65.9,61.0,56.7,84,64,37,30.29,29.99,7,3,13,0.00
2013-8-27,91.1,78.7,70.5,73.8,69.3,65.4,91,74,50,29.99,29.87,5,2,11,0.04
2013-8-28,84.2,75.4,70.2,75.1,71.2,69.0,97,87,65,29.91,29.82,8,1,15,0.06
2013-8-29,86.4,76.2,70.8,72.4,70.3,67.2,98,84,56,30.03,29.84,4,1,10,0.03
2013-8-30,86.5,75.6,66.5,73.1,69.2,64.8,96,82,58,30.03,29.89,8,2,15,0.00
2013-8-31,89.5,79.0,70.9,75.0,71.7,68.7,93,79,58,29.91,29.79,8,3,16,0.00
2013-9-1,89.9,79.5,69.3,75.7,71.9,67.3,95,78,59,29.85,29.76,7,2,12,0.00
2013-9-2,91.7,80.3,71.1,75.9,71.6,68.2,97,77,49,29.80,29.71,8,2,16,0.03
2013-9-3,86.9,78.4,69.2,72.3,63.8,54.8,92,64,38,29.95,29.71,7,2,15,0.00
2013-9-4,84.5,69.8,56.9,62.9,57.1,49.8,91,67,33,30.07,29.95,5,1,11,0.00
2013-9-5,86.1,72.4,60.4,63.2,58.8,51.8,92,65,41,30.13,29.99,7,2,18,0.00
2013-9-6,75.7,65.0,54.4,53.7,49.2,42.9,90,59,36,30.26,30.12,6,1,12,0.00
2013-9-7,82.4,66.6,50.4,63.1,56.9,49.3,96,74,41,30.15,29.93,7,2,14,0.00
2013-9-8,90.8,74.9,65.2,68.7,64.0,55.8,96,71,43,30.06,29.86,6,1,12,0.02
2013-9-9,78.2,70.2,59.6,68.8,58.9,51.5,86,68,54,30.21,30.06,6,2,11,0.00
2013-9-10,89.9,78.9,70.5,76.1,71.8,68.3,93,80,62,30.18,30.08,7,3,14,0.00
2013-9-11,92.9,81.2,72.7,77.0,73.3,71.2,96,78,55,30.14,30.00,8,2,15,0.00
2013-9-12,90.3,75.4,69.0,73.8,69.9,65.3,97,84,53,30.00,29.73,13,2,27,1.19
2013-9-13,79.8,69.9,63.4,68.5,59.5,48.9,97,73,36,29.92,29.69,9,2,19,0.00
2013-9-14,71.7,60.5,50.4,53.2,48.7,45.6,94,67,42,30.17,29.91,6,2,15,0.00
2013-9-15,76.0,61.7,45.8,60.0,52.5,44.4,98,75,42,30.25,30.09,7,2,13,0.00
2013-9-16,75.5,64.7,54.6,63.1,57.2,52.6,94,78,51,30.24,30.04,6,1,11,0.01
2013-9-17,69.0,58.2,48.5,54.9,46.1,40.3,94,66,40,30.43,30.24,5,2,13,0.00
2013-9-18,70.5,55.3,43.4,53.7,46.7,38.9,97,77,33,30.35,30.20,5,1,11,0.00
2013-9-19,76.2,61.1,45.4,59.5,53.5,44.6,98,79,52,30.21,30.08,6,1,11,0.00
2013-9-20,78.4,65.0,51.0,62.7,57.5,49.6,97,78,54,30.10,29.97,6,2,12,0.00
2013-9-21,76.1,67.4,59.5,67.4,62.2,57.8,97,84,64,29.99,29.68,8,3,19,0.81
2013-9-22,74.4,64.4,53.1,61.9,55.8,48.6,98,76,46,29.94,29.71,6,1,15,0.01
2013-9-23,69.3,57.4,47.2,49.3,46.1,41.1,95,68,43,30.09,29.94,7,1,13,0.00
2013-9-24,74.4,56.6,42.4,51.9,46.1,41.6,97,73,34,30.11,29.93,6,1,13,0.00
2013-9-25,76.6,57.5,44.5,56.8,49.6,43.6,98,79,36,29.99,29.88,5,0,8,0.00
2013-9-26,77.3,60.4,51.5,60.6,53.5,50.1,97,81,44,30.08,29.92,5,0,7,0.00
2013-9-27,73.2,61.4,52.6,60.5,55.8,51.2,98,84,56,30.25,30.07,6,1,10,0.00
2013-9-28,75.2,62.3,54.4,58.6,55.1,52.5,97,79,50,30.31,30.22,4,1,9,0.00
2013-9-29,74.8,60.1,50.0,61.0,54.0,49.0,98,83,51,30.22,30.07,5,1,9,0.00
2013-9-30,74.2,59.3,48.3,58.6,53.2,47.5,98,82,54,30.10,29.99,5,1,8,0.00
2013-10-1,80.5,64.4,51.2,65.1,58.6,50.4,98,83,53,30.07,29.96,8,1,18,0.00
2013-10-2,85.7,70.3,58.0,65.4,60.6,56.4,96,75,42,30.08,29.98,7,1,17,0.00
2013-10-3,81.0,68.8,57.8,69.5,63.5,57.0,97,84,63,30.12,30.04,4,0,6,0.00
2013-10-4,88.9,71.6,59.0,69.8,64.7,57.9,98,81,48,30.08,30.00,5,1,9,0.00
2013-10-5,87.1,74.1,63.6,69.5,66.5,62.7,98,79,53,30.08,30.00,5,1,10,0.00
2013-10-6,86.3,73.9,62.9,71.7,67.2,62.2,98,81,56,30.03,29.93,10,3,19,0.00
2013-10-7,76.5,66.8,53.6,72.3,64.2,49.3,97,92,76,30.05,29.80,12,3,27,0.85
2013-10-8,66.9,55.8,46.4,53.4,48.8,45.6,97,79,52,30.28,30.05,4,1,11,0.00
2013-10-9,61.3,56.6,52.4,53.7,51.5,49.1,95,84,72,30.32,30.20,5,1,14,0.08
2013-10-10,57.9,55.9,53.8,57.2,55.0,52.8,98,97,93,30.21,29.97,5,2,12,1.97
2013-10-11,64.1,60.7,57.8,62.3,59.9,57.2,98,97,93,30.00,29.92,4,2,15,1.03
2013-10-12,67.6,62.7,60.5,61.9,60.1,57.1,98,91,72,30.17,29.98,5,1,14,1.30
2013-10-13,65.8,60.4,55.3,59.8,57.3,53.1,97,90,74,30.33,30.16,5,1,14,0.29
2013-10-14,69.7,59.2,50.4,58.1,54.0,49.5,97,84,63,30.34,30.24,5,1,9,0.00
2013-10-15,72.6,58.2,46.6,56.7,51.3,44.5,99,81,40,30.25,30.09,3,0,10,0.00
2013-10-16,67.1,62.0,58.8,62.5,59.3,56.4,96,91,84,30.09,29.92,4,0,7,0.00
2013-10-17,75.0,65.7,59.0,66.1,62.0,58.2,98,88,70,29.92,29.73,7,2,18,0.03
2013-10-18,68.1,57.1,45.9,59.6,46.8,42.7,96,71,42,30.02,29.80,8,2,19,0.01
2013-10-19,64.5,54.5,42.4,58.4,49.9,41.6,98,86,55,30.01,29.79,8,2,22,0.00
2013-10-20,64.3,52.8,42.1,48.5,39.9,34.8,95,64,35,30.11,29.85,11,3,20,0.00
2013-10-21,67.2,52.6,37.7,49.1,43.4,36.4,98,74,39,30.16,29.98,7,2,16,0.00
2013-10-22,64.0,55.7,47.2,53.3,48.5,44.8,94,78,57,29.98,29.82,6,1,13,0.00
2013-10-23,59.0,49.9,43.7,46.9,40.1,34.9,96,70,46,29.88,29.64,8,1,15,0.07
2013-10-24,53.2,44.0,34.8,37.7,31.8,25.5,94,64,39,30.15,29.88,12,3,26,0.00
2013-10-25,56.9,43.3,31.5,37.0,32.1,29.6,93,67,42,30.33,30.13,9,2,18,0.00
2013-10-26,56.7,43.5,28.6,34.0,30.3,27.4,96,64,37,30.31,29.94,14,3,24,0.00
2013-10-27,60.9,48.3,36.4,39.1,35.7,32.7,94,65,39,30.17,29.94,8,2,18,0.00
2013-10-28,64.3,45.9,32.7,49.2,40.5,31.7,97,83,49,30.30,30.16,6,0,8,0.00
2013-10-29,62.7,47.6,36.4,48.6,42.1,35.6,98,83,54,30.39,30.28,4,0,10,0.00
2013-10-30,64.1,52.6,45.8,57.5,50.6,45.0,98,93,78,30.34,30.16,5,1,10,0.10
2013-10-31,67.2,60.1,49.8,61.5,57.2,49.3,99,91,79,30.20,29.79,7,2,15,0.01
2013-11-1,73.5,65.5,54.9,64.5,60.5,54.1,97,85,61,29.79,29.60,14,4,26,0.22
2013-11-2,70.1,57.0,47.6,58.0,47.8,39.6,98,74,44,29.88,29.64,7,1,18,0.01
2013-11-3,58.2,47.9,39.5,42.9,33.7,22.1,91,61,29,30.48,29.88,9,2,18,0.00
2013-11-4,47.5,38.3,32.9,30.8,25.2,18.5,89,61,35,30.65,30.47,5,1,11,0.00
2013-11-5,57.7,48.8,33.2,48.2,42.4,30.3,92,79,64,30.62,30.48,4,0,7,0.00
2013-11-6,65.0,56.2,44.3,52.4,49.8,43.2,97,80,60,30.48,30.07,9,2,16,0.00
2013-11-7,62.5,54.2,44.4,57.3,47.4,24.7,96,79,45,30.08,29.86,11,3,22,0.03
2013-11-8,52.8,41.5,30.9,32.5,26.6,23.4,87,58,34,30.32,30.08,12,3,26,0.00
2013-11-9,54.5,42.3,27.3,31.8,28.4,25.2,93,61,36,30.36,30.03,9,2,16,0.00
2013-11-10,64.5,50.2,41.5,37.5,30.6,27.7,66,48,27,30.22,29.94,13,4,28,0.00
2013-11-11,57.2,47.0,31.7,39.6,31.0,27.6,86,55,33,30.32,30.00,8,3,17,0.00
2013-11-12,52.9,41.4,28.6,37.5,23.9,13.3,71,50,38,30.40,29.98,11,3,23,0.00
2013-11-13,45.2,33.4,26.6,22.5,19.2,14.9,77,57,36,30.47,30.39,10,2,21,0.00
2013-11-14,59.7,37.6,24.2,32.5,23.8,12.1,91,64,16,30.40,30.23,7,1,14,0.00
2013-11-15,58.9,40.9,26.9,42.2,31.1,24.1,93,72,30,30.30,30.20,6,1,11,0.00
2013-11-16,51.8,48.1,44.2,49.3,46.3,41.9,97,94,86,30.34,30.25,4,0,7,0.21
2013-11-17,64.6,55.1,49.1,58.2,53.1,48.6,99,93,79,30.25,29.76,7,2,12,0.01
2013-11-18,69.9,59.8,50.0,62.8,40.1,23.8,97,56,21,29.93,29.69,17,4,30,0.16
2013-11-19,51.3,45.0,38.0,28.5,26.2,22.8,65,48,38,30.38,29.93,12,4,23,0.00
2013-11-20,45.1,36.9,28.1,28.0,25.1,22.6,91,63,47,30.58,30.37,5,1,11,0.00
2013-11-21,49.3,39.3,27.4,40.8,33.8,25.6,95,81,64,30.59,30.40,3,0,5,0.00
2013-11-22,60.3,51.9,44.5,52.8,47.3,40.0,96,85,71,30.40,30.00,6,1,13,0.01
2013-11-23,57.5,45.3,31.7,52.0,28.0,10.1,82,52,27,30.19,30.01,14,6,29,0.00
2013-11-24,32.1,27.6,22.7,11.2,8.1,5.0,60,44,33,30.52,30.18,18,7,32,0.00
2013-11-25,36.2,28.3,18.7,15.6,11.2,8.4,68,49,33,30.59,30.36,8,3,15,0.00
2013-11-26,57.9,37.6,33.7,57.3,29.1,14.1,98,75,42,30.37,29.53,8,2,17,1.40
2013-11-27,57.8,39.3,30.1,57.2,35.0,16.3,98,85,53,30.03,29.48,15,6,35,0.80
2013-11-28,38.8,30.8,25.4,24.4,16.9,12.8,82,57,36,30.50,30.02,11,4,23,0.00
2013-11-29,43.9,32.1,21.6,25.6,21.9,19.5,94,69,40,30.74,30.48,10,1,14,0.00
2013-11-30,39.6,29.7,21.0,26.2,22.7,18.9,92,76,50,30.73,30.39,4,1,7,0.00
2013-12-1,50.5,34.6,22.4,34.6,28.4,20.9,94,80,46,30.39,30.03,6,0,8,0.00
2013-12-2,47.6,40.9,37.9,38.6,35.9,33.3,93,83,63,30.03,29.89,5,0,8,0.00
2013-12-3,57.0,42.6,33.9,38.1,35.4,32.1,94,77,47,30.01,29.89,5,1,8,0.00
2013-12-4,50.4,44.2,34.1,47.2,40.8,32.6,96,88,79,30.10,30.00,4,0,6,0.00
2013-12-5,63.7,54.9,48.7,61.3,52.6,46.8,97,92,81,30.09,29.93,7,2,11,0.00
2013-12-6,65.7,50.5,37.3,62.3,48.9,35.7,98,94,88,30.18,29.88,9,3,17,0.48
2013-12-7,43.7,37.4,29.4,36.3,30.9,22.4,96,78,59,30.55,30.13,9,3,17,0.14
2013-12-8,32.1,29.7,28.0,31.1,24.8,19.5,96,82,65,30.61,30.28,6,2,12,0.18
2013-12-9,35.9,33.4,31.7,34.4,32.3,30.7,97,96,94,30.30,30.04,6,1,10,0.70
2013-12-10,37.5,32.7,30.5,34.8,29.6,19.3,98,89,61,30.23,29.99,7,2,14,0.17
2013-12-11,40.7,31.0,22.8,24.2,19.8,16.6,93,65,39,30.42,30.23,7,2,15,0.06
2013-12-12,31.6,26.7,22.3,22.4,13.9,7.2,94,60,37,30.44,30.25,10,2,19,0.00
2013-12-13,43.3,32.2,23.2,25.6,17.1,12.2,84,56,32,30.33,30.22,13,2,21,0.02
2013-12-14,38.7,34.8,29.5,37.1,30.9,24.1,97,86,70,30.35,29.69,6,2,13,0.62
2013-12-15,48.2,37.6,32.4,38.2,30.4,22.2,96,77,54,29.96,29.62,15,4,26,0.00
2013-12-16,36.7,33.5,31.0,25.8,22.7,17.3,77,65,53,30.22,29.95,8,2,25,0.00
2013-12-17,36.2,33.5,30.9,29.8,27.0,23.7,86,77,70,30.19,29.95,6,2,12,0.00
2013-12-18,40.6,32.1,24.2,27.8,23.2,18.0,93,72,43,30.24,29.99,13,2,26,0.00
2013-12-19,59.1,39.4,22.5,34.2,27.2,21.0,94,66,31,30.23,30.08,7,2,14,0.00
2013-12-20,59.7,53.8,46.7,50.3,35.3,28.0,73,50,36,30.12,30.00,9,4,15,0.00
2013-12-21,72.1,61.9,55.8,56.7,51.2,44.7,91,69,55,30.02,29.90,15,5,24,0.00
2013-12-22,71.3,63.2,58.7,64.6,59.7,55.4,95,89,77,30.02,29.83,15,5,30,0.50
2013-12-23,62.6,54.3,39.2,60.1,50.8,29.2,98,88,65,30.23,29.93,11,3,20,0.51
2013-12-24,41.5,34.1,24.0,30.0,20.8,7.4,82,59,41,30.48,30.20,13,5,26,0.00
2013-12-25,33.0,24.1,18.5,18.7,13.2,9.6,91,64,41,30.58,30.41,7,2,13,0.00
2013-12-26,45.6,30.9,21.2,28.5,23.0,18.6,92,74,43,30.41,30.23,9,1,14,0.00
2013-12-27,50.2,34.4,22.2,27.7,21.9,16.0,90,64,26,30.43,30.32,8,2,16,0.00
2013-12-28,58.6,41.7,26.9,31.5,25.9,22.1,82,57,27,30.34,30.12,8,2,13,0.00
2013-12-29,47.9,44.0,38.7,45.7,39.6,28.4,97,86,47,30.12,29.52,10,2,16,0.93
2013-12-30,45.9,38.0,32.3,39.4,30.8,19.5,97,77,57,30.20,29.82,12,3,22,0.00
2013-12-31,44.7,33.7,25.3,29.8,21.0,16.6,77,60,41,30.35,30.10,15,3,27,0.00
2014-1-1,41.8,33.0,23.5,33.7,26.0,19.0,94,76,55,30.43,30.15,8,2,14,0.00
2014-1-2,36.1,31.8,27.2,33.5,30.2,26.0,97,94,89,30.15,29.61,7,1,13,0.00